OE2WAO-25 Weather Reports


Display with metric or nautical units.
time (UTC)temp
F
wind
direction
speed
MPH
gust
MPH
rain 1hr
in
rain 24hr
in
rain mn
in
humidity
%
barometer
mb
20260505125011 78 0.0 0.0 0.00 0.00 0.00 41 1004.8
20260505124003 79 0.0 0.0 0.00 0.00 0.00 39 1005.0
20260505122956 78 0.0 0.0 0.00 0.00 0.00 40 1005.2
20260505121948 78 0.0 0.0 0.00 0.00 0.00 40 1005.3
20260505120941 78 0.0 0.0 0.00 0.00 0.00 41 1005.5
20260505115933 78 0.0 0.0 0.00 0.00 0.00 41 1005.6
20260505114926 77 0.0 0.0 0.00 0.00 0.00 43 1005.8
20260505113919 76 0.0 0.0 0.00 0.00 0.00 44 1005.9
20260505112911 76 0.0 0.0 0.00 0.00 0.00 46 1006.1
20260505111904 76 0.0 0.0 0.00 0.00 0.00 47 1006.2
20260505110856 76 0.0 0.0 0.00 0.00 0.00 52 1006.3
20260505101819 71 0.0 0.0 0.00 0.00 0.00 76 1007.1
20260505100811 71 0.0 0.0 0.00 0.00 0.00 83 1007.2
20260505095804 70 0.0 0.0 0.00 0.00 0.00 71 1007.3
20260505094757 71 0.0 0.0 0.00 0.00 0.00 74 1007.4
20260505093749 70 0.0 0.0 0.00 0.00 0.00 95 1007.5
20260505092742 69 0.0 0.0 0.00 0.00 0.00 99 1007.6
20260505091734 69 0.0 0.0 0.00 0.00 0.00 95 1007.7
20260505090727 69 0.0 0.0 0.00 0.00 0.00 96 1007.7
20260505085719 69 0.0 0.0 0.00 0.00 0.00 99 1007.7
20260505084712 68 0.0 0.0 0.00 0.00 0.00 99 1007.7
20260505083705 67 0.0 0.0 0.00 0.00 0.00 99 1007.7
20260505082657 66 0.0 0.0 0.00 0.00 0.00 99 1007.8
20260505081651 65 0.0 0.0 0.00 0.00 0.00 99 1007.8
20260505080642 65 0.0 0.0 0.00 0.00 0.00 99 1007.9
20260505075635 65 0.0 0.0 0.00 0.00 0.00 99 1008.0
20260505074627 63 0.0 0.0 0.00 0.00 0.00 99 1008.0
20260505073620 63 0.0 0.0 0.00 0.00 0.00 99 1008.1
20260505072612 63 0.0 0.0 0.00 0.00 0.00 99 1008.2
20260505071605 63 0.0 0.0 0.00 0.00 0.00 99 1008.2
20260505070557 62 0.0 0.0 0.00 0.00 0.00 99 1008.2
20260505065549 62 0.0 0.0 0.00 0.00 0.00 99 1008.3
20260505064542 61 0.0 0.0 0.00 0.00 0.00 99 1008.3
20260505063535 61 0.0 0.0 0.00 0.00 0.00 99 1008.2
20260505062527 60 0.0 0.0 0.00 0.00 0.00 99 1008.2
20260505061520 60 0.0 0.0 0.00 0.00 0.00 99 1008.3
20260505060512 59 0.0 0.0 0.00 0.00 0.00 99 1008.4
20260505055505 58 0.0 0.0 0.00 0.00 0.00 99 1008.4
20260505054457 58 0.0 0.0 0.00 0.00 0.00 99 1008.5
20260505053450 57 0.0 0.0 0.00 0.00 0.00 99 1008.5
20260505052442 56 0.0 0.0 0.00 0.00 0.00 99 1008.5
20260505051435 56 0.0 0.0 0.00 0.00 0.00 99 1008.5
20260505050427 56 0.0 0.0 0.00 0.00 0.00 99 1008.4
20260505041350 56 0.0 0.0 0.00 0.00 0.00 99 1008.6
20260505040343 56 0.0 0.0 0.00 0.00 0.00 99 1008.7
20260505035335 56 0.0 0.0 0.00 0.00 0.00 99 1008.7
20260505034328 56 0.0 0.0 0.00 0.00 0.00 99 1008.7
20260505033320 56 0.0 0.0 0.00 0.00 0.00 99 1008.7
20260505032313 57 0.0 0.0 0.00 0.00 0.00 99 1008.8
20260505031305 57 0.0 0.0 0.00 0.00 0.00 99 1008.9
20260505030258 57 0.0 0.0 0.00 0.00 0.00 99 1009.0
20260505025250 57 0.0 0.0 0.00 0.00 0.00 99 1009.0
20260505024243 57 0.0 0.0 0.00 0.00 0.00 99 1009.1
20260505023235 58 0.0 0.0 0.00 0.00 0.00 99 1009.2
20260505022228 58 0.0 0.0 0.00 0.00 0.00 99 1009.3
20260505021220 58 0.0 0.0 0.00 0.00 0.00 99 1009.4
20260505020213 59 0.0 0.0 0.00 0.00 0.00 99 1009.5
20260505015205 59 0.0 0.0 0.00 0.00 0.00 99 1009.5
20260505014158 59 0.0 0.0 0.00 0.00 0.00 99 1009.6
20260505013150 60 0.0 0.0 0.00 0.00 0.00 99 1009.6
20260505012143 60 0.0 0.0 0.00 0.00 0.00 99 1009.6
20260505011135 60 0.0 0.0 0.00 0.00 0.00 99 1009.7
20260505010128 60 0.0 0.0 0.00 0.00 0.00 99 1009.8
20260505005120 60 0.0 0.0 0.00 0.00 0.00 99 1009.9
20260505004113 61 0.0 0.0 0.00 0.00 0.00 99 1010.0
20260505003105 61 0.0 0.0 0.00 0.00 0.00 99 1010.1
20260505002058 61 0.0 0.0 0.00 0.00 0.00 99 1010.1
20260505001050 61 0.0 0.0 0.00 0.00 0.00 99 1010.2
20260505000043 61 0.0 0.0 0.00 0.00 0.00 99 1010.3
20260504235036 61 0.0 0.0 0.00 0.00 0.00 99 1010.3
20260504234028 62 0.0 0.0 0.00 0.00 0.00 99 1010.3
20260504233020 62 0.0 0.0 0.00 0.00 0.00 99 1010.3
20260504232013 62 0.0 0.0 0.00 0.00 0.00 99 1010.3
20260504231006 62 0.0 0.0 0.00 0.00 0.00 99 1010.3
20260504225958 62 0.0 0.0 0.00 0.00 0.00 99 1010.4
20260504224951 62 0.0 0.0 0.00 0.00 0.00 99 1010.4
20260504223943 62 0.0 0.0 0.00 0.00 0.00 99 1010.5
20260504222935 62 0.0 0.0 0.00 0.00 0.00 99 1010.6
20260504221928 62 0.0 0.0 0.00 0.00 0.00 99 1010.4
20260504220921 63 0.0 0.0 0.00 0.00 0.00 99 1010.3
20260504215913 63 0.0 0.0 0.00 0.00 0.00 99 1010.3
20260504214905 63 0.0 0.0 0.00 0.00 0.00 99 1010.3
20260504213858 64 0.0 0.0 0.00 0.00 0.00 99 1010.3
20260504212850 64 0.0 0.0 0.00 0.00 0.00 99 1010.3
20260504211844 64 0.0 0.0 0.00 0.00 0.00 99 1010.3
20260504210836 64 0.0 0.0 0.00 0.00 0.00 99 1010.3
20260504205828 64 0.0 0.0 0.00 0.00 0.00 99 1010.3
20260504204821 65 0.0 0.0 0.00 0.00 0.00 99 1010.2
20260504203813 65 0.0 0.0 0.00 0.00 0.00 99 1010.2
20260504202806 65 0.0 0.0 0.00 0.00 0.00 99 1010.2
20260504201759 66 0.0 0.0 0.00 0.00 0.00 99 1010.2
20260504200750 66 0.0 0.0 0.00 0.00 0.00 99 1010.2
20260504195743 66 0.0 0.0 0.00 0.00 0.00 99 1010.2
20260504194735 67 0.0 0.0 0.00 0.00 0.00 99 1010.1
20260504193726 68 0.0 0.0 0.00 0.00 0.00 99 1010.1
20260504192719 68 0.0 0.0 0.00 0.00 0.00 99 1010.1
20260504191711 69 0.0 0.0 0.00 0.00 0.00 96 1010.0
20260504190704 69 0.0 0.0 0.00 0.00 0.00 99 1010.0
20260504185656 70 0.0 0.0 0.00 0.00 0.00 99 1009.9
20260504184649 71 0.0 0.0 0.00 0.00 0.00 97 1009.9
20260504183642 71 0.0 0.0 0.00 0.00 0.00 86 1009.8
20260504182634 72 0.0 0.0 0.00 0.00 0.00 78 1009.8
20260504181626 73 0.0 0.0 0.00 0.00 0.00 68 1009.8
20260504180619 73 0.0 0.0 0.00 0.00 0.00 66 1009.8
20260504175611 74 0.0 0.0 0.00 0.00 0.00 64 1009.9
20260504174604 74 0.0 0.0 0.00 0.00 0.00 63 1009.8
20260504173557 75 0.0 0.0 0.00 0.00 0.00 62 1009.8
20260504172549 75 0.0 0.0 0.00 0.00 0.00 62 1009.9
20260504171542 75 0.0 0.0 0.00 0.00 0.00 63 1009.8
20260504170534 76 0.0 0.0 0.00 0.00 0.00 58 1009.7
20260504150405 81 0.0 0.0 0.00 0.00 0.00 47 1009.8
20260504141324 81 0.0 0.0 0.00 0.00 0.00 48 1010.1
20260504140316 80 0.0 0.0 0.00 0.00 0.00 45 1010.2
20260504130230 80 0.0 0.0 0.00 0.00 0.00 49 1011.1